Regional Weather Roundup
Issued by NWS Wakefield, VA

Home | Current Version | Previous Version | Text Only | Print | Product List | Glossary On
Versions: 1 2 3 4 5 6 7 8 9 10 11 12 13 14 15 16 17 18 19 20 21 22 23 24 25 26 27 28 29 30 31 32 33 34 35 36 37 38 39 40 41 42 43 44 45 46 47 48 49 50
000
ASUS41 KAKQ 210610
RWRAKQ

REGIONAL WEATHER ROUNDUP
NATIONAL WEATHER SERVICE WAKEFIELD VA
200 AM EDT SUN SEP 21 2014

Note: "fair" indicates few or no clouds below 12,000 feet with no
significant weather and/or obstructions to visibility. * = Denotes
station may not report precipitation (e.g., rain,snow,etc.),
thunder or fog.

VAZ042-051-052>054-056-210700-
NORTHERN VIRGINIA

CITY           SKY/WX    TMP DP  RH WIND       PRES   REMARKS
WASH NATIONAL  PTCLDY    67  60  78 N5        30.01F
DULLES         CLEAR     58  57  97 CALM      30.00F
FORT BELVOIR   CLEAR     60  59  97 CALM      30.00F
QUANTICO       CLEAR     63  60  90 NW5       30.00F
FREDERICKSBRG* CLEAR     61  61 100 CALM      30.00F
STAFFORD*      CLEAR     58  58 100 CALM      30.04F
WARRENTON      CLEAR     57  57 100 CALM      30.00F FOG
CULPEPER*      CLEAR     55  55 100 CALM      30.01F FOG
MANASSAS*      CLEAR     57  57 100 CALM      30.00F
LEESBURG*      CLEAR     61  61 100 CALM      30.01F
WINCHESTER     CLEAR     63  55  77 CALM      29.99F
FRONT ROYAL*   CLEAR     61  55  82 CALM      29.99F
LURAY*         CLEAR     59  59 100 CALM      30.01F
$$

VAZ048-049-060>072-079>083-210700-
CENTRAL AND SOUTH CENTRAL VIRGINIA...AND NORTH CENTRAL NORTH CAROLINA

CITY           SKY/WX    TMP DP  RH WIND       PRES   REMARKS
RICHMOND       CLOUDY    67  63  87 N7        29.98F
CHESTERFIELD*  CLOUDY   N/A N/A N/A N5        29.98F
PETERSBURG*    MOCLDY    65  63  91 N5        29.98F
HANOVER        CLOUDY    64  63  96 NW3       30.00F
TAPPAHANNOCK*  MOCLDY    64  62  92 CALM      29.99F
CHARLOTTSVILLE CLEAR     59  57  93 W5        30.01F
ORANGE*        PTCLDY    55  55 100 CALM      30.01F
LOUISA*        FOG       59  57  94 CALM      29.99F VSB 1/2
FARMVILLE*     PTCLDY    61  61 100 CALM      29.98F
CREWE*         MOCLDY    62  60  91 NW5       29.98F
FORT PICKETT*  MOCLDY    64  63  96 N7        29.98F
LUNENBURG*     MOCLDY    64  63  96 N7        29.98F
SOUTH HILL*    MOCLDY    66  66 100 N5        30.02F
LAWRENCEVILLE* CLOUDY    65  64  96 CALM      29.96F
ROANOKE RAPIDS MOCLDY    64  64 100 N7        29.94F
RALEIGH        MOCLDY    65  61  87 N3        29.96F
$$

VAZ088>098-210700-
SOUTHEAST VIRGINIA

CITY           SKY/WX    TMP DP  RH WIND       PRES   REMARKS
NORFOLK        CLOUDY    73  70  90 N9        29.94F
VIRGINIA BEACH CLOUDY    71  69  93 N6        29.93F
NORFOLK NAVAL  CLOUDY    74  70  87 N13       29.96F
WEST POINT*    MOCLDY    68  65  89 NW3       29.97F
NEWPORT NEWS   MOCLDY    72  67  84 NE5       29.95F
LANGLEY AFB    CLOUDY    71  71 100 VRB6      29.94F
FORT EUSTIS    MOCLDY    68 N/A N/A N6        29.93F
WILLIAMSBURG*  MOCLDY    70  66  88 N5        29.96F
HR EXEC AP*    MOCLDY    70  68  94 N6        29.96F
FRANKLIN*      CLOUDY    66  66 100 CALM      29.94F
WAKEFIELD      CLOUDY    68  64  87 N5        29.95F
$$

VAZ020-022-025-037-045-210700-
WEST CENTRAL AND SOUTHWEST VIRGINIA

CITY           SKY/WX    TMP DP  RH WIND       PRES   REMARKS
STAUNTON*      CLEAR     54  51  89 CALM      30.05F
HOT SPRINGS VA CLEAR     56  40  55 S7        30.13F
LYNCHBURG      PTCLDY    56  56 100 CALM      30.02F FOG
DANVILLE       MOCLDY    60  57  89 CALM      30.00F
SOUTH BOSTON*  NOT AVBL
MARTINSVILLE   PTCLDY    55  55 100 NW3       30.04F FOG
ROANOKE        CLEAR     58  56  93 N5        30.05F
BLACKSBURG     CLEAR     55  55 100 CALM      30.09F FOG
DUBLIN*        MOCLDY    55  55 100 CALM      30.08F FOG
MARION*        PTCLDY    54  53  95 CALM      30.10F FOG
HILLSVILLE*    CLEAR     55  54  97 CALM      30.08F
RICHLANDS*     CLEAR     67  56  69 S3        30.06F
WISE*          CLEAR     59  54  82 CALM      30.08F
ABINGDON*      CLEAR     59  57  91 CALM      30.06F
$$

MDZ021>025-VAZ099-100-210700-
SOUTHERN MARYLAND AND THE DELMARVA PENINSULA

CITY           SKY/WX    TMP DP  RH WIND       PRES   REMARKS
PATUXENT RIVER CLOUDY    69  65  86 NW6       29.98F
BAY BRIDGE APT   N/A     64  63  94 CALM      30.00F
LEONARDTOWN    CLOUDY    63  61  94 CALM      29.99F
DOVER          CLOUDY    67  67 100 NW6       29.97F
GEORGETOWN     CLOUDY    69  66  90 VRB5      29.98F
EASTON         CLOUDY    66  66 100 CALM      30.03F
CAMBRIDGE      CLOUDY    70  64  83 CALM      29.97F
SALISBURY      CLOUDY    71  67  87 NW5       29.97F
OCEAN CITY     CLOUDY   N/A N/A N/A CALM      29.96F HAZE
WALLOPS ISLAND CLOUDY    69  68  96 N6        29.97F FOG
ACCOMACK*      CLOUDY    70  66  88 N6        29.96F
$$

NCZ012>017-030>032-210700-
EASTERN NORTH CAROLINA

CITY           SKY/WX    TMP DP  RH WIND       PRES   REMARKS
ELIZABETH CITY CLOUDY    72  69  90 N8        29.91F
AHOSKIE*       MOCLDY    67  65  94 N7        29.94F
EDENTON*       LGT RAIN  70  69  96 N6        29.91F
CURRITUCK*     DRIZZLE   72  69  90 N3        29.93F
KILL DEVIL HLS DRIZZLE   73  71  95 NE3       29.88F
MANTEO         DRIZZLE   72  71  96 NE7       29.89F
CAPE HATTERAS  HVY RAIN  70  70 100 E13G23    29.83F FOG
TARBORO*       CLOUDY    68  66  92 N5        29.94F
GOLDSBORO      LGT RAIN  70  68  94 N2        29.89F
WASHINGTON     CLOUDY    69  68  97 N7        29.90F
GREENVILLE     LGT RAIN  68  68 100 N8        29.93F
NEW BERN       RAIN      73  69  87 N9        29.86F FOG
WILMINGTON     LGT RAIN  69  68  96 N14       29.82F
$$

VAZ048-210700-
ELSEWHERE

CITY           SKY/WX    TMP DP  RH WIND       PRES   REMARKS
HARRISBURG PA  CLEAR     60  57  89 E5        29.99F
BALTIMORE      PTCLDY    61  59  93 CALM      30.00F
ANNAPOLIS      PTCLDY    67  64  90 NW7       30.00F
ANDREWS AFB    CLEAR     61  60  99 N2        30.00F
WILMINGTON DE  CLOUDY    66  64  93 NW5       30.02F
PHILADELPHIA   CLOUDY    69  64  84 NW7       30.01F
WILDWOOD NJ*   CLOUDY    68  64  88 N6        29.99F
ATLANTIC CITY  CLOUDY    67  66  97 CALM      29.99F
HENDERSON NC   MOCLDY    64  61  93 N5        29.97F
GREENSBORO     MOCLDY    63  59  87 N5        30.00F
ROCKY MOUNT    CLOUDY    68  65  90 N10       29.93F
FAYETTEVILLE   MOCLDY    69  64  84 N12       29.91F
CHARLOTTE      PTCLDY    62  59  90 NW6       30.00F
$$

VAZ100-210700-
MARINE

STATION/POSITION TIME  TEMP    WIND        PRES    WAVE   SWELL
                       AIR SEA DIR/SP/G            HT/PER HT/PER
                 (UTC) (F)     (DEG/KT/KT) (MB)    (FT/S) (FT/S)
44066 TX TWR #4  0600   73 72  140/ 14/ 16 1016.1F   5/ 6   3/ 7
CAPE MAY NJ      0600   70 75   20/  1/  2 1014.8F
LEWES DE         0600   71 72   10/  5/  6 1015.0F
15NM E FENWICK I 0600   72 72              1014.8F   6/ 9
OCEAN-CITY-INLET 0600   71 71   10/  6/  7 1014.5F
WACHAPREAGUE VA  0600   69 74   20/  3/  6 1014.6F
THOMAS POINT MD  0600   69 74   CALM  /  1 1016.8F
GOOSES REEF MD   0600   70     180/  2/  4 1016.4F
COVE POINT MD    0600   69     350/  5/  6 1015.3F
SOLOMONS ISLAND  0600      76                N/A
BISHOPS HEAD MD  0600   69 73   20/  5/  8 1014.9F
PINEY POINT MD   0600           10/  6/  7   N/A
POTOMAC MD       0600   71      10/  6/ 10 1014.6F
CAMBRIDGE MD     0600   68 74   20/  5/  6 1015.3F
LEWISETTA VA     0600   71 74  350/  5/  7 1014.6F
RAPPAHANNOCK LGT 0600           10/ 12/ 14 1014.9F
STINGRAY PT      0600   72     360/ 12/ 14   N/A
YORK RVR RNG VA  0600   71      10/ 13/ 14 1013.5F
YORKTOWN VA      0600   69 76  340/  9/ 10 1013.8F
JAMESTOWN VA     0600   67      10/  6/  8   N/A
DOMINION TERM VA 0600   71      20/  5/  8 1014.2F
KIPTOPEKE VA     0600      78   40/  6/  8   N/A
CHES BAY BRIDGE  0600   73 75  360/ 10/ 12 1013.6F
CAPE HENRY VA    0600   74      20/  8/  9 1012.8F
CHESAPEAKE LGHT  0500   74      90/ 11/ 11 1014.9F
WILLOUBY STN VA  0600   72      20/  8/  9 1012.9S
S CRANEY ISL VA  0600          340/  8/ 10 1013.6F
CAPE HENRY BUOY  0600      75                N/A     6/ 9   2/11
1ST LANDING BUOY 0600   74      30/  8/ 10 1013.9S
CAPE CHARLES BUO 0600      74                N/A     5/10   5/10
OFFSHORE WE BUOY 0600      74                N/A     6/10   7/10
64NM E OF VA BCH 0600   77 77  110/ 14/ 23 1012.6F   7/ 9   5/ 9
DUCK PIER NC     0600   74 74   40/ 10/ 11 1011.8F
44100 DUCK FRF   0600      74                N/A     7/11   2/11
44056 DUCK FRF   0600                        N/A     6/ 9   2/11
OREGON INLET NC  0600   72 73   50/ 11/ 16 1011.6F
HATTERAS NC      0600   73 75   50/  8/ 12 1010.5F
DIAMOND SHLS NC  0600   75     110/ 23/ 31 1008.8F   9/10   5/10
CAPE LOOKOUT NC  0500   71      10/ 13/ 16 1009.6F
$$


USA.gov is the U.S. government's official web portal to all federal, state and local government web resources and services.